TimeEDT,TemperatureF,Dew PointF,Humidity,Sea Level PressureIn,VisibilityMPH,Wind Direction,Wind SpeedMPH,Gust SpeedMPH,PrecipitationIn,Events,Conditions,WindDirDegrees,DateUTC
12:53 AM,55.0,53.1,93,29.86,4.0,ENE,5.8,-,N/A,,Overcast,70,2013-06-08 04:53:00
1:32 AM,55.4,53.6,94,29.85,4.0,NE,4.6,-,0.01,,Overcast,50,2013-06-08 05:32:00
1:50 AM,55.4,53.6,94,29.84,4.0,NE,6.9,-,0.01,,Overcast,40,2013-06-08 05:50:00
1:53 AM,55.0,53.1,93,29.85,5.0,NE,6.9,-,0.01,,Overcast,40,2013-06-08 05:53:00
2:24 AM,53.6,53.6,100,29.83,6.0,NE,8.1,-,N/A,,Overcast,50,2013-06-08 06:24:00
2:53 AM,54.0,53.1,97,29.83,2.0,NE,6.9,-,N/A,,Overcast,50,2013-06-08 06:53:00
3:13 AM,53.6,53.6,100,29.82,1.8,NE,5.8,-,N/A,,Overcast,50,2013-06-08 07:13:00
3:20 AM,53.6,53.6,100,29.82,2.0,NE,6.9,-,0.01,,Overcast,50,2013-06-08 07:20:00
3:53 AM,54.0,53.1,97,29.82,3.0,NE,6.9,-,0.01,,Overcast,40,2013-06-08 07:53:00
4:53 AM,54.0,53.1,97,29.83,9.0,NE,5.8,-,N/A,,Overcast,40,2013-06-08 08:53:00
5:34 AM,53.6,53.6,100,29.82,8.0,NE,4.6,-,N/A,,Overcast,40,2013-06-08 09:34:00
5:53 AM,54.0,53.1,97,29.83,8.0,NE,6.9,-,N/A,,Overcast,50,2013-06-08 09:53:00
6:29 AM,53.6,53.6,100,29.83,2.0,NE,5.8,-,0.00,Rain,Light Rain,40,2013-06-08 10:29:00
6:38 AM,53.6,53.6,100,29.83,1.8,NNE,4.6,-,0.01,Rain,Light Rain,20,2013-06-08 10:38:00
6:53 AM,54.0,53.1,97,29.84,1.5,North,4.6,-,0.01,Rain,Light Rain,10,2013-06-08 10:53:00
7:01 AM,53.6,53.6,100,29.83,1.2,North,6.9,-,0.00,Rain,Light Rain,10,2013-06-08 11:01:00
7:16 AM,53.6,53.6,100,29.84,1.5,North,5.8,-,0.01,,Overcast,350,2013-06-08 11:16:00
7:26 AM,53.6,53.6,100,29.84,1.2,North,4.6,-,0.01,,Overcast,360,2013-06-08 11:26:00
7:41 AM,55.4,53.6,94,29.84,1.8,NNE,5.8,-,0.01,,Overcast,20,2013-06-08 11:41:00
7:53 AM,54.0,53.1,97,29.86,2.0,North,5.8,-,0.01,,Overcast,360,2013-06-08 11:53:00
8:01 AM,55.4,53.6,94,29.85,3.0,North,4.6,-,N/A,,Overcast,10,2013-06-08 12:01:00
8:53 AM,55.0,53.1,93,29.87,7.0,North,5.8,-,N/A,,Overcast,10,2013-06-08 12:53:00
9:53 AM,57.0,53.1,87,29.87,10.0,North,5.8,-,N/A,,Overcast,350,2013-06-08 13:53:00
10:37 AM,57.2,53.6,88,29.89,10.0,NW,6.9,-,N/A,,Overcast,320,2013-06-08 14:37:00
10:53 AM,57.0,53.1,87,29.90,10.0,Variable,4.6,-,N/A,,Overcast,0,2013-06-08 14:53:00
11:03 AM,57.2,53.6,88,29.90,10.0,NNW,5.8,-,N/A,,Overcast,340,2013-06-08 15:03:00
11:53 AM,57.9,54.0,87,29.91,10.0,NNW,5.8,-,N/A,,Overcast,340,2013-06-08 15:53:00
12:53 PM,59.0,55.0,87,29.92,10.0,West,4.6,-,N/A,,Overcast,280,2013-06-08 16:53:00
1:53 PM,60.1,54.0,80,29.91,10.0,West,6.9,-,N/A,,Overcast,270,2013-06-08 17:53:00
2:53 PM,61.0,55.0,81,29.93,10.0,West,5.8,-,N/A,,Overcast,260,2013-06-08 18:53:00
3:53 PM,61.0,54.0,78,29.94,10.0,WSW,6.9,-,N/A,,Overcast,240,2013-06-08 19:53:00
4:53 PM,61.0,55.0,81,29.96,10.0,SSW,5.8,-,N/A,,Overcast,200,2013-06-08 20:53:00
5:53 PM,59.0,55.9,90,29.97,3.0,SW,5.8,-,N/A,,Overcast,230,2013-06-08 21:53:00
6:00 PM,59.0,55.4,88,29.97,4.0,SW,4.6,-,N/A,,Overcast,230,2013-06-08 22:00:00
6:53 PM,60.1,55.9,86,29.98,10.0,Calm,Calm,-,N/A,,Overcast,0,2013-06-08 22:53:00
7:53 PM,61.0,57.0,87,29.98,10.0,SSW,4.6,-,N/A,,Overcast,210,2013-06-08 23:53:00
8:18 PM,60.8,57.2,88,29.97,10.0,South,3.5,-,N/A,,Overcast,190,2013-06-09 00:18:00
8:53 PM,60.1,57.0,90,29.99,10.0,SW,4.6,-,N/A,,Overcast,230,2013-06-09 00:53:00
9:16 PM,59.0,57.2,94,29.99,10.0,SW,3.5,-,N/A,,Overcast,220,2013-06-09 01:16:00
9:53 PM,59.0,57.0,93,30.02,10.0,SW,5.8,-,N/A,,Overcast,230,2013-06-09 01:53:00
10:53 PM,59.0,55.9,90,30.03,10.0,SW,6.9,-,N/A,,Overcast,230,2013-06-09 02:53:00
11:53 PM,59.0,55.9,90,30.04,10.0,SW,6.9,-,N/A,,Overcast,230,2013-06-09 03:53:00